Regional Weather Roundup
Issued by NWS Jackson, KY

Home | Current Version | Previous Version | Graphics & Text | Print | Product List | Glossary On
Versions: 1 2 3 4 5 6 7 8 9 10 11 12 13 14 15 16 17 18 19 20 21 22 23 24 25 26 27 28 29 30 31 32 33 34 35 36 37 38 39 40 41 42 43 44 45 46 47 48 49 50
000
ASUS43 KJKL 051710
RWRJKL

EAST KENTUCKY HOURLY WEATHER ROUNDUP
NATIONAL WEATHER SERVICE JACKSON KY
1200 PM EST THU MAR 05 2015

NOTE: "FAIR" INDICATES FEW OR NO CLOUDS BELOW 12,000 FEET WITH
NO SIGNIFICANT WEATHER AND/OR OBSTRUCTIONS TO VISIBILITY.

* THESE REPORTS ARE NOT UNDER NWS QUALITY CONTROL AND MAY NOT
  REPORT WEATHER SUCH AS PRECIPITATION AND FOG.

KYZ079-080-083-085-087-088-110-112-115-119-120-051800
...EASTERN KENTUCKY...

CITY           SKY/WX    TMP DP  RH WIND       PRES   REMARKS
JACKSON        LGT SNOW  21  17  84 CALM      30.24F FOG
LONDON         LGT SNOW  24  16  71 N9        30.23F WCI  14
MONTICELLO*    LGT SNOW  23  18  80 N9        30.33R WCI  13
HAZARD APT*    LGT SNOW  23  21  93 N6        30.24S WCI  16
BLACK MTN*       N/A     16  16 100 N5          N/A  WCI   9
PIKEVILLE APT* LGT SNOW  21  18  86 N6        30.23R WCI  14
MOREHEAD APT*  LGT SNOW  19  14  79 N7        30.34R VSB 3/4 WCI  10
$$

KYZ035-036-041-042-044-050-067-078-099-051800
...CENTRAL KENTUCKY...

CITY           SKY/WX    TMP DP  RH WIND       PRES   REMARKS
FLEMING/MASON* LGT SNOW  16  14  93 N7        30.36R WCI   6
LEXINGTON      LGT SNOW  18  14  84 N9        30.34R FOG     WCI   7
FRANKFORT      CLOUDY    20  12  71 N6        30.36R WCI  12
$$

KYZ091>093-OHZ055-061-077-WVZ005-015-034-035-042-051800
...SOUTHERN OHIO/WEST VIRGINIA...

CITY           SKY/WX    TMP DP  RH WIND       PRES   REMARKS
COVINGTON      CLOUDY    21   9  59 VRB7      30.36R WCI  12
COLUMBUS       CLOUDY    19   6  57 N12       30.33S WCI   7
DAYTON         PTSUNNY   20   6  55 NW9       30.36S WCI   9
WILMINGTON     CLOUDY    19   4  51 N8        30.33R WCI   9
HUNTINGTON     LGT SNOW  19  15  84 N9        30.29R FOG     WCI   8
CHARLESTON     LGT SNOW  21  18  88 NW10      30.26R VSB 1   WCI  10
BECKLEY        LGT SNOW  22  18  85 N8        30.10S VSB 3/4 WCI  12
BLUEFIELD      HVY SNOW  26  21  81 N6        30.07S VSB 1/4 WCI  19
$$

VAZ002-007-008-TNZ017-027-036-066-071-051800
...SOUTHWEST VIRGINIA/EAST TENNESSEE...

CITY           SKY/WX    TMP DP  RH WIND       PRES   REMARKS
BRISTOL        LGT SNOW  33  32  96 NW3       30.12F FOG
KNOXVILLE      LGT RAIN  32  30  92 N12       30.11F WCI  23
OAK RIDGE      CLOUDY    32  29  88 VRB7      30.15F WCI  26
CROSSVILLE     CLOUDY    24  20  84 N12       30.16F WCI  13
NASHVILLE      CLOUDY    23  18  81 N12       30.37S WCI  12
$$

...KEY TO REMARKS...
VSB - VISIBILITY IN MILES
WCI - WIND CHILL INDEX
HX  - HEAT INDEX

$$


USA.gov is the U.S. government's official web portal to all federal, state and local government web resources and services.